[Date Prev][Date Next][Thread Prev][Thread Next] - [Date Index][Thread Index][Author Index]

2 Line ISS Keps 9-18



ISS
1 25544U 98067A   03261.19256912  .00011295  00000-0  13043-3 0  5153
2 25544  51.6303 271.7400 0005540 257.8672 191.9064 15.62428274275535


----
Via the sarex mailing list at AMSAT.ORG courtesy of AMSAT-NA.
To unsubscribe, send "unsubscribe sarex" to Majordomo@amsat.org



AMSAT Top AMSAT Home